TimeEDT,TemperatureF,Dew PointF,Humidity,Sea Level PressureIn,VisibilityMPH,Wind Direction,Wind SpeedMPH,Gust SpeedMPH,PrecipitationIn,Events,Conditions,WindDirDegrees,DateUTC
12:53 AM,-9999,-9999,N/A,29.98,-9999.0,East,5.8,-,N/A,,Unknown,100,2013-10-19 04:53:00
1:53 AM,78.1,71.1,79,29.96,10.0,ESE,5.8,-,N/A,,Partly Cloudy,120,2013-10-19 05:53:00
2:53 AM,78.1,71.1,79,29.94,10.0,SE,3.5,-,N/A,,Partly Cloudy,130,2013-10-19 06:53:00
3:53 AM,75.9,70.0,82,29.93,10.0,Calm,Calm,-,N/A,,Clear,0,2013-10-19 07:53:00
4:53 AM,75.9,71.1,85,29.93,10.0,ESE,3.5,-,N/A,,Clear,110,2013-10-19 08:53:00
5:53 AM,75.0,71.1,87,29.94,10.0,Calm,Calm,-,N/A,,Clear,0,2013-10-19 09:53:00
6:53 AM,73.9,70.0,87,29.95,10.0,Calm,Calm,-,N/A,,Clear,0,2013-10-19 10:53:00
7:53 AM,73.0,71.1,93,29.96,10.0,Calm,Calm,-,N/A,,Clear,0,2013-10-19 11:53:00
8:53 AM,82.0,72.0,71,29.97,10.0,ESE,8.1,-,N/A,,Clear,120,2013-10-19 12:53:00
9:53 AM,84.0,72.0,67,29.99,10.0,SE,6.9,-,N/A,,Clear,130,2013-10-19 13:53:00
10:53 AM,87.1,71.1,59,29.99,10.0,SE,10.4,-,N/A,,Partly Cloudy,140,2013-10-19 14:53:00
11:53 AM,87.1,71.1,59,29.98,10.0,SSE,10.4,-,N/A,,Scattered Clouds,150,2013-10-19 15:53:00
12:53 PM,87.1,71.1,59,29.96,10.0,SE,11.5,-,N/A,,Overcast,140,2013-10-19 16:53:00
1:53 PM,87.1,71.1,59,29.93,10.0,SSE,10.4,-,N/A,,Overcast,150,2013-10-19 17:53:00
2:53 PM,87.1,71.1,59,29.91,10.0,ESE,6.9,-,N/A,,Overcast,120,2013-10-19 18:53:00
3:53 PM,88.0,72.0,59,29.91,10.0,ESE,11.5,-,N/A,,Scattered Clouds,120,2013-10-19 19:53:00
4:53 PM,86.0,72.0,63,29.90,10.0,ESE,11.5,-,N/A,,Clear,110,2013-10-19 20:53:00
5:53 PM,82.9,72.0,69,29.91,10.0,SE,9.2,-,N/A,,Partly Cloudy,140,2013-10-19 21:53:00
6:53 PM,82.0,72.0,71,29.92,10.0,SE,9.2,-,N/A,,Scattered Clouds,140,2013-10-19 22:53:00
7:53 PM,82.0,73.0,74,29.93,10.0,SSE,6.9,-,N/A,,Overcast,150,2013-10-19 23:53:00
8:53 PM,82.0,73.9,76,29.94,10.0,SSE,5.8,-,N/A,,Overcast,160,2013-10-20 00:53:00
9:53 PM,82.0,73.9,76,29.95,10.0,SSE,3.5,-,N/A,,Overcast,150,2013-10-20 01:53:00
10:53 PM,81.0,73.9,79,29.96,10.0,SE,3.5,-,N/A,,Mostly Cloudy,140,2013-10-20 02:53:00
11:53 PM,81.0,73.9,79,29.96,10.0,SSE,3.5,-,N/A,,Mostly Cloudy,160,2013-10-20 03:53:00